Tracking 22879 objects as of 20-Apr-2021
HD Live streaming from Space Station
objects crossing your sky now

OBJECT E

Track OBJECT E now!
10-day predictions


NORAD ID: 45253
Int'l Code: 2020-014E
Perigee: 479.2 km
Apogee: 488.8 km
Inclination: 35.0 °
Period: 94.1 minutes
Semi major axis: 6854 km
RCS: Unknown
Launch date: February 19, 2020
Source: People's Republic of China (PRC)
Launch site: Xichang Space Center, China (XSC)
aabbcc
Your satellite tracking list
Your tracking list is empty




NASA's NSSDC Master Catalog

Two Line Element Set (TLE):
1 45253U 20014E   21110.13957353  .00003111  00000-0  10683-3 0  9994
2 45253  35.0145 263.2838 0007057 160.1870   6.2234 15.29650436 65080
Source of the keplerian elements: AFSPC